Torna al catalogo

ICEYE-X5

AttivoScienzaPO
NORAD 44389·PAYLOAD·🇫🇮 Finland

Lanciato Jul 5, 2019 da Vostochny Cosmodrome

Loading…

Prossimi Passaggi (prossime 24 ore)

TLE

AggiornatoSource: Space-Track

Epoca: Sep 14, 2026, 22:03 UTC

1 44389U 19038C   26257.91913390  .00071184  00000-0  75864-3 0  9990
2 44389  97.8585 322.1481 0003766 260.0477 100.0356 15.63742397396944

Traccia ICEYE-X5 in tempo reale con AllMySat

Download on the App Store